Tracking 21472 objects as of 21-Sep-2020
HD Live streaming from Space Station
objects crossing your sky now

CZ-2D DEB

Track CZ-2D DEB now!
10-day predictions


NORAD ID: 38301
Int'l Code: 2010-027F
Perigee: 550.8 km
Apogee: 792.0 km
Inclination: 97.9 °
Period: 98.0 minutes
Semi major axis: 7042 km
RCS: 0.0012 m2 (small)
Launch date: June 15, 2010
Source: People's Republic of China (PRC)
Launch site: Jiuquan Satellite Launch Center, China (JSC)

Note: This is SATELLITE DEBRIS
aabbcc
Your satellite tracking list
Your tracking list is empty




NASA's NSSDC Master Catalog

Two Line Element Set (TLE):
1 38301U 10027F   20265.50051248 +.00000422 +00000-0 +65824-4 0  9992
2 38301 097.8563 158.8639 0171253 249.5404 235.9621 14.68992919537137
Source of the keplerian elements: AFSPC